| time (UTC) | temp C | wind direction | speed KPH | gust KPH | rain 1hr cm | rain 24hr cm | rain mn cm | humidity % | barometer mb |
| 20260503034450 | 23 | 28 | 3.2 | 3.2 | 0.00 | 2.03 | 2.03 | 98 | 1015.9 |
| 20260503033450 | 23 | 93 | 1.6 | 3.2 | 0.00 | 2.03 | 2.03 | 98 | 1016.2 |
| 20260503032450 | 23 | 115 | 1.6 | 1.6 | 0.00 | 2.01 | 2.03 | 97 | 1016.1 |
| 20260503031450 | 23 | 1 | 4.8 | 4.8 | 0.00 | 2.01 | 2.01 | 97 | 1015.8 |
| 20260503030450 | 23 | 100 | 3.2 | 3.2 | 0.00 | 2.01 | 2.01 | 97 | 1015.9 |
| 20260503025450 | 23 | 356 | 3.2 | 4.8 | 0.00 | 2.01 | 2.01 | 98 | 1015.6 |
| 20260503024450 | 23 | 0 | 0.0 | 1.6 | 0.00 | 2.03 | 2.01 | 97 | 1015.8 |
| 20260503023450 | 23 | 321 | 1.6 | 1.6 | 0.00 | 2.03 | 2.01 | 97 | 1015.6 |
| 20260503022450 | 23 | 343 | 3.2 | 4.8 | 0.00 | 2.03 | 2.01 | 97 | 1015.7 |
| 20260503021450 | 23 | 268 | 3.2 | 3.2 | 0.00 | 2.03 | 2.01 | 98 | 1015.3 |
| 20260503020450 | 23 | 0 | 0.0 | 1.6 | 0.00 | 2.03 | 2.01 | 98 | 1015.4 |
| 20260503015450 | 23 | 262 | 3.2 | 3.2 | 0.00 | 2.03 | 2.01 | 97 | 1015.4 |
| 20260503014450 | 23 | 201 | 3.2 | 3.2 | 0.00 | 2.03 | 2.01 | 97 | 1015.5 |
| 20260503013450 | 23 | 240 | 3.2 | 4.8 | 0.00 | 2.01 | 2.01 | 97 | 1015.4 |
| 20260503012450 | 23 | 282 | 1.6 | 3.2 | 0.00 | 2.01 | 2.01 | 97 | 1015.2 |
| 20260503011450 | 23 | 0 | 0.0 | 1.6 | 0.00 | 2.01 | 2.01 | 96 | 1015.3 |
| 20260503010450 | 23 | 341 | 4.8 | 6.4 | 0.03 | 2.01 | 2.01 | 96 | 1015.3 |
| 20260503005450 | 23 | 334 | 4.8 | 8.0 | 0.03 | 2.01 | 2.01 | 97 | 1014.9 |
| 20260503004450 | 23 | 324 | 6.4 | 8.0 | 0.03 | 2.01 | 2.01 | 97 | 1015.0 |
| 20260503003450 | 23 | 323 | 3.2 | 4.8 | 0.05 | 2.01 | 2.01 | 97 | 1014.9 |
| 20260503002450 | 23 | 291 | 1.6 | 3.2 | 0.08 | 2.01 | 2.01 | 97 | 1014.8 |
| 20260503001450 | 23 | 267 | 1.6 | 1.6 | 0.08 | 2.01 | 1.98 | 97 | 1015.0 |
| 20260503000450 | 23 | 0 | 0.0 | 1.6 | 0.08 | 1.98 | 1.98 | 97 | 1015.1 |
| 20260502235450 | 23 | 309 | 4.8 | 6.4 | 0.10 | 1.98 | 1.98 | 98 | 1015.1 |
| 20260502234450 | 23 | 0 | 0.0 | 1.6 | 0.18 | 1.98 | 1.96 | 98 | 1015.2 |
| 20260502233450 | 23 | 310 | 4.8 | 4.8 | 0.18 | 1.96 | 1.96 | 98 | 1015.2 |
| 20260502232450 | 23 | 259 | 1.6 | 3.2 | 0.23 | 1.93 | 1.93 | 98 | 1015.0 |
| 20260502231450 | 23 | 0 | 0.0 | 3.2 | 0.30 | 1.91 | 1.91 | 98 | 1015.5 |
| 20260502230450 | 23 | 294 | 3.2 | 3.2 | 0.41 | 1.91 | 1.88 | 98 | 1015.4 |
| 20260502225450 | 23 | 315 | 4.8 | 8.0 | 0.41 | 1.85 | 1.88 | 98 | 1015.3 |
| 20260502224450 | 23 | 297 | 3.2 | 4.8 | 0.38 | 1.80 | 1.83 | 98 | 1015.2 |
| 20260502223450 | 23 | 260 | 1.6 | 3.2 | 0.38 | 1.75 | 1.75 | 99 | 1014.8 |
| 20260502222450 | 23 | 330 | 1.6 | 3.2 | 0.46 | 1.73 | 1.70 | 98 | 1014.8 |
| 20260502221450 | 23 | 0 | 0.0 | 3.2 | 0.46 | 1.68 | 1.63 | 98 | 1014.7 |
| 20260502220450 | 24 | 236 | 1.6 | 3.2 | 0.51 | 1.60 | 1.50 | 99 | 1014.8 |
| 20260502215450 | 23 | 0 | 0.0 | 3.2 | 0.51 | 1.57 | 1.45 | 98 | 1014.7 |
| 20260502214450 | 24 | 0 | 0.0 | 1.6 | 0.51 | 1.52 | 1.40 | 98 | 1014.9 |
| 20260502213450 | 24 | 208 | 1.6 | 4.8 | 0.51 | 1.50 | 1.37 | 98 | 1015.0 |
| 20260502212450 | 24 | 0 | 0.0 | 1.6 | 0.48 | 1.35 | 1.24 | 98 | 1014.9 |
| 20260502211450 | 24 | 161 | 4.8 | 4.8 | 0.66 | 1.24 | 1.17 | 98 | 1015.0 |
| 20260502210450 | 25 | 141 | 1.6 | 3.2 | 0.86 | 1.09 | 0.99 | 98 | 1014.9 |
| 20260502205450 | 25 | 106 | 1.6 | 3.2 | 0.89 | 1.04 | 0.91 | 98 | 1014.8 |
| 20260502204450 | 25 | 78 | 1.6 | 1.6 | 0.89 | 1.02 | 0.89 | 98 | 1014.5 |
| 20260502203450 | 25 | 45 | 1.6 | 3.2 | 0.84 | 0.97 | 0.84 | 97 | 1014.5 |
| 20260502202450 | 25 | 88 | 9.7 | 9.7 | 0.71 | 0.86 | 0.79 | 97 | 1014.2 |
| 20260502201450 | 25 | 73 | 1.6 | 3.2 | 0.41 | 0.56 | 0.58 | 96 | 1013.9 |
| 20260502200450 | 25 | 96 | 12.9 | 14.5 | 0.08 | 0.23 | 0.18 | 94 | 1013.5 |
| 20260502195450 | 26 | 110 | 11.3 | 16.1 | 0.00 | 0.13 | 0.00 | 90 | 1013.5 |
| 20260502194450 | 27 | 99 | 4.8 | 12.9 | 0.00 | 0.13 | 0.00 | 87 | 1012.9 |
| 20260502193450 | 27 | 164 | 6.4 | 6.4 | 0.00 | 0.13 | 0.00 | 88 | 1013.0 |
| 20260502192450 | 28 | 153 | 1.6 | 6.4 | 0.00 | 0.13 | 0.00 | 86 | 1013.1 |
| 20260502191450 | 28 | 144 | 4.8 | 4.8 | 0.00 | 0.13 | 0.00 | 86 | 1012.8 |
| 20260502190450 | 28 | 162 | 3.2 | 3.2 | 0.00 | 0.13 | 0.00 | 86 | 1012.9 |
| 20260502185450 | 28 | 174 | 4.8 | 8.0 | 0.00 | 0.13 | 0.00 | 85 | 1012.9 |
| 20260502184450 | 28 | 190 | 3.2 | 8.0 | 0.00 | 0.13 | 0.00 | 84 | 1012.8 |
| 20260502183450 | 28 | 180 | 4.8 | 6.4 | 0.00 | 0.13 | 0.00 | 84 | 1013.2 |
| 20260502182450 | 28 | 98 | 4.8 | 6.4 | 0.00 | 0.15 | 0.00 | 85 | 1013.3 |
| 20260502181450 | 28 | 210 | 3.2 | 3.2 | 0.00 | 0.20 | 0.00 | 85 | 1013.5 |
| 20260502180450 | 29 | 201 | 4.8 | 6.4 | 0.00 | 0.30 | 0.00 | 83 | 1013.7 |
| 20260502170450 | 30 | 186 | 3.2 | 6.4 | 0.00 | 0.30 | 0.00 | 80 | 1014.2 |
| 20260502163450 | 30 | 208 | 3.2 | 3.2 | 0.00 | 0.30 | 0.00 | 81 | 1014.8 |
| 20260502162450 | 30 | 265 | 4.8 | 8.0 | 0.00 | 0.30 | 0.00 | 81 | 1015.1 |
| 20260502161450 | 30 | 216 | 6.4 | 8.0 | 0.00 | 0.30 | 0.00 | 82 | 1015.1 |
| 20260502160450 | 29 | 0 | 0.0 | 1.6 | 0.00 | 0.30 | 0.00 | 84 | 1015.4 |
| 20260502151450 | 28 | 264 | 1.6 | 4.8 | 0.00 | 0.30 | 0.00 | 86 | 1014.8 |
| 20260502150450 | 28 | 122 | 1.6 | 3.2 | 0.00 | 0.30 | 0.00 | 87 | 1014.7 |
| 20260502130450 | 26 | 324 | 4.8 | 8.0 | 0.00 | 0.30 | 0.00 | 91 | 1013.9 |
| 20260502123450 | 26 | 314 | 3.2 | 4.8 | 0.00 | 0.30 | 0.00 | 91 | 1013.5 |
| 20260502122450 | 26 | 338 | 6.4 | 8.0 | 0.00 | 0.30 | 0.00 | 92 | 1013.5 |
| 20260502121450 | 26 | 330 | 4.8 | 6.4 | 0.00 | 0.30 | 0.00 | 93 | 1013.4 |
| 20260502120450 | 26 | 319 | 6.4 | 8.0 | 0.00 | 0.30 | 0.00 | 93 | 1012.9 |
| 20260502115450 | 26 | 303 | 3.2 | 6.4 | 0.00 | 0.30 | 0.00 | 94 | 1012.9 |
| 20260502114450 | 26 | 326 | 3.2 | 3.2 | 0.00 | 0.30 | 0.00 | 94 | 1012.4 |
| 20260502113450 | 26 | 291 | 3.2 | 3.2 | 0.00 | 0.30 | 0.00 | 94 | 1012.5 |
| 20260502112450 | 26 | 296 | 3.2 | 3.2 | 0.00 | 0.30 | 0.00 | 94 | 1012.5 |
| 20260502111450 | 26 | 277 | 1.6 | 3.2 | 0.00 | 0.30 | 0.00 | 94 | 1012.7 |
| 20260502110450 | 26 | 326 | 1.6 | 1.6 | 0.00 | 0.30 | 0.00 | 94 | 1012.4 |
| 20260502105450 | 26 | 289 | 1.6 | 3.2 | 0.00 | 0.30 | 0.00 | 94 | 1012.1 |
| 20260502104450 | 26 | 267 | 1.6 | 3.2 | 0.00 | 0.30 | 0.00 | 94 | 1012.2 |
| 20260502103450 | 26 | 0 | 0.0 | 1.6 | 0.00 | 0.30 | 0.00 | 94 | 1012.3 |
| 20260502102450 | 26 | 300 | 4.8 | 6.4 | 0.00 | 0.30 | 0.00 | 94 | 1012.2 |
| 20260502101450 | 26 | 304 | 6.4 | 6.4 | 0.00 | 0.30 | 0.00 | 94 | 1012.3 |
| 20260502100450 | 26 | 250 | 1.6 | 1.6 | 0.00 | 0.30 | 0.00 | 94 | 1011.8 |
| 20260502091450 | 26 | 332 | 8.0 | 8.0 | 0.00 | 0.30 | 0.00 | 94 | 1011.4 |
| 20260502090450 | 26 | 326 | 6.4 | 6.4 | 0.00 | 0.30 | 0.00 | 94 | 1011.2 |
| 20260502071450 | 26 | 312 | 3.2 | 4.8 | 0.00 | 0.30 | 0.00 | 95 | 1012.3 |
| 20260502070450 | 26 | 281 | 3.2 | 4.8 | 0.00 | 0.30 | 0.00 | 95 | 1012.7 |
| 20260502065450 | 26 | 276 | 1.6 | 3.2 | 0.00 | 0.30 | 0.00 | 95 | 1012.4 |
| 20260502064450 | 26 | 340 | 1.6 | 4.8 | 0.00 | 0.30 | 0.00 | 94 | 1012.6 |
| 20260502063450 | 26 | 301 | 3.2 | 4.8 | 0.00 | 0.30 | 0.00 | 94 | 1013.0 |
| 20260502062450 | 26 | 287 | 4.8 | 4.8 | 0.00 | 0.30 | 0.00 | 95 | 1012.7 |
| 20260502061450 | 26 | 341 | 3.2 | 3.2 | 0.00 | 0.30 | 0.00 | 95 | 1012.7 |
| 20260502060450 | 26 | 264 | 1.6 | 1.6 | 0.00 | 0.30 | 0.00 | 96 | 1012.8 |
| 20260502055450 | 26 | 273 | 3.2 | 4.8 | 0.00 | 0.30 | 0.00 | 96 | 1013.0 |
| 20260502054450 | 26 | 223 | 1.6 | 3.2 | 0.00 | 0.30 | 0.00 | 96 | 1012.8 |
| 20260502053450 | 26 | 183 | 1.6 | 3.2 | 0.00 | 0.30 | 0.00 | 96 | 1012.9 |
| 20260502052450 | 26 | 232 | 1.6 | 3.2 | 0.00 | 0.30 | 0.00 | 96 | 1013.3 |
| 20260502051450 | 26 | 270 | 3.2 | 3.2 | 0.00 | 0.30 | 0.00 | 96 | 1012.9 |
| 20260502050450 | 26 | 294 | 1.6 | 3.2 | 0.00 | 0.30 | 0.00 | 96 | 1012.8 |
| 20260502045450 | 26 | 254 | 6.4 | 8.0 | 0.00 | 0.30 | 0.30 | 95 | 1012.5 |
| 20260502044450 | 26 | 274 | 3.2 | 6.4 | 0.00 | 0.30 | 0.30 | 95 | 1012.2 |
| 20260502043450 | 26 | 256 | 3.2 | 3.2 | 0.00 | 0.30 | 0.30 | 95 | 1012.7 |
| 20260502042450 | 26 | 285 | 1.6 | 3.2 | 0.00 | 0.30 | 0.30 | 95 | 1012.8 |
| 20260502041450 | 26 | 360 | 3.2 | 3.2 | 0.00 | 0.30 | 0.30 | 95 | 1013.0 |
| 20260502040450 | 26 | 7 | 1.6 | 3.2 | 0.00 | 0.30 | 0.30 | 95 | 1013.3 |
| 20260502035450 | 26 | 348 | 4.8 | 6.4 | 0.00 | 0.30 | 0.30 | 95 | 1013.3 |